Weather History for LEVT - November, 2012

Change the Weather History Date:

Wednesday, November 21, 2012

  Actual Average Record
Temperature  
Mean Temperature 43 °F -  
Max Temperature 51 °F 49 °F 63 °F (2014)
Min Temperature 33 °F 34 °F 21 °F (1998)
Degree Days  
Heating Degree Days 22    
Moisture  
Dew Point 41 °F    
Average Humidity 83    
Maximum Humidity 100    
Minimum Humidity 62    
Precipitation  
Precipitation 0.00 in - - ()
Sea Level Pressure  
Sea Level Pressure 30.11 in    
Wind  
Wind Speed 5 mph ()    
Max Wind Speed 13 mph    
Max Gust Speed -    
Visibility 6.2 miles    
Events Rain    
Averages and records for this station are not official NWS values.
T = Trace of Precipitation, MM = Missing Value Source: Averaged Metar Reports

Daily Weather History Graph

Daily Weather History Graph

Search for Another Location

Airport or City:

Trip Planner

Search our weather history database for the weather conditions in past years. The results will help you decide how hot, cold, wet, or windy it might be!

Date:

Astronomy

Nov. 21, 2012 Rise Set
Actual Time 8:10 AM CET 5:42 PM CET
Civil Twilight 7:39 AM CET 6:13 PM CET
Nautical Twilight 7:05 AM CET 6:48 PM CET
Astronomical Twilight 6:31 AM CET 7:21 PM CET
Moon 2:00 PM CET (11/21) 1:05 AM CET (11/21)
Length of Visible Light 10h 33m
Length of Day
9h 31m
First Quarter, 59% of the Moon is Illuminated
Nov 21
First Quarter
Nov 28
Full
Dec 6
Last Quarter
Dec 13
New
Dec 20
First Quarter

Hourly Weather History & Observations

Time (CET) Temp. Windchill Dew Point Humidity Pressure Visibility Wind Dir Wind Speed Gust Speed Precip Events Conditions
12:00 AM 48.2 °F - 44.6 °F 87% 29.92 in - SW 12.7 mph - N/A   Clear
12:30 AM 48.2 °F - 44.6 °F 87% 29.92 in - SW 11.5 mph - N/A   Clear
1:00 AM 48.2 °F - 42.8 °F 82% 29.92 in - Variable 2.3 mph - N/A   Clear
1:30 AM 48.2 °F - 42.8 °F 82% 29.92 in - Variable 1.2 mph - N/A   Clear
2:00 AM 50.0 °F - 42.8 °F 76% 29.92 in - SW 10.4 mph - N/A   Clear
2:30 AM 50.0 °F - 42.8 °F 76% 29.95 in - SW 11.5 mph - N/A   Clear
3:00 AM 50.0 °F - 42.8 °F 76% 29.95 in - SW 6.9 mph - N/A   Clear
3:30 AM 50.0 °F - 42.8 °F 76% 29.95 in - Variable 2.3 mph - N/A   Clear
4:00 AM 50.0 °F - 42.8 °F 76% 29.95 in 6.2 mi Variable 1.2 mph - N/A   Partly Cloudy
4:30 AM 48.2 °F - 42.8 °F 82% 29.95 in 6.2 mi Calm Calm - N/A   Partly Cloudy
5:00 AM 48.2 °F - 44.6 °F 87% 29.95 in 6.2 mi Calm Calm - N/A   Partly Cloudy
5:30 AM 50.0 °F - 44.6 °F 82% 29.98 in 6.2 mi Calm Calm - N/A   Scattered Clouds
6:00 AM 50.0 °F - 44.6 °F 82% 29.98 in 6.2 mi SW 3.5 mph - N/A   Scattered Clouds
6:30 AM 48.2 °F - 46.4 °F 93% 30.01 in 6.2 mi SW 9.2 mph - N/A   Mostly Cloudy
7:00 AM 48.2 °F - 46.4 °F 93% 30.01 in 6.2 mi SSW 5.8 mph - N/A   Mostly Cloudy
7:30 AM 48.2 °F - 46.4 °F 93% 30.04 in 6.2 mi WSW 3.5 mph - N/A   Scattered Clouds
8:00 AM 48.2 °F - 44.6 °F 87% 30.06 in 6.2 mi NNW 12.7 mph - N/A Rain Light Rain
8:30 AM 46.4 °F - 42.8 °F 87% 30.06 in 6.2 mi NNE 1.2 mph - N/A   Mostly Cloudy
9:00 AM 46.4 °F - 42.8 °F 87% 30.09 in 6.2 mi ESE 2.3 mph - N/A   Mostly Cloudy
9:30 AM 46.4 °F - 44.6 °F 93% 30.12 in 6.2 mi East 1.2 mph - N/A Rain Light Rain
10:00 AM 46.4 °F 44.3 °F 42.8 °F 87% 30.12 in 6.2 mi North 4.6 mph - N/A   Mostly Cloudy
10:30 AM 48.2 °F - 44.6 °F 87% 30.15 in 6.2 mi Variable 2.3 mph - N/A   Mostly Cloudy
11:00 AM 48.2 °F - 42.8 °F 82% 30.15 in 6.2 mi Calm Calm - N/A   Mostly Cloudy
11:30 AM 50.0 °F - 44.6 °F 82% 30.15 in 6.2 mi Variable 2.3 mph - N/A   Mostly Cloudy
12:00 PM 50.0 °F - 42.8 °F 76% 30.18 in 6.2 mi ENE 2.3 mph - N/A   Mostly Cloudy
12:30 PM 51.8 °F - 41.0 °F 67% 30.18 in 6.2 mi North 6.9 mph - N/A   Scattered Clouds
1:00 PM 51.8 °F - 41.0 °F 67% 30.15 in 6.2 mi North 2.3 mph - N/A   Scattered Clouds
1:30 PM 51.8 °F - 41.0 °F 67% 30.18 in 6.2 mi NNW 9.2 mph - N/A   Scattered Clouds
2:00 PM 51.8 °F - 39.2 °F 62% 30.18 in 6.2 mi NW 8.1 mph - N/A   Scattered Clouds
2:30 PM 51.8 °F - 39.2 °F 62% 30.18 in 6.2 mi NW 6.9 mph - N/A   Scattered Clouds
3:00 PM 50.0 °F - 39.2 °F 66% 30.18 in 6.2 mi NNW 9.2 mph - N/A   Scattered Clouds
3:30 PM 51.8 °F - 41.0 °F 67% 30.18 in 6.2 mi North 6.9 mph - N/A   Scattered Clouds
4:00 PM 50.0 °F - 41.0 °F 71% 30.18 in 6.2 mi NNE 9.2 mph - N/A   Scattered Clouds
4:30 PM 50.0 °F - 41.0 °F 71% 30.18 in 6.2 mi North 9.2 mph - N/A   Scattered Clouds
5:00 PM 48.2 °F - 39.2 °F 71% 30.18 in 6.2 mi NNE 6.9 mph - N/A   Scattered Clouds
5:30 PM 46.4 °F 44.3 °F 39.2 °F 76% 30.18 in 6.2 mi North 4.6 mph - N/A   Scattered Clouds
6:00 PM 44.6 °F 42.2 °F 39.2 °F 81% 30.21 in 6.2 mi NE 4.6 mph - N/A   Scattered Clouds
6:30 PM 44.6 °F 42.2 °F 39.2 °F 81% 30.21 in 6.2 mi NNE 4.6 mph - N/A   Scattered Clouds
7:00 PM 42.8 °F - 39.2 °F 87% 30.21 in 6.2 mi Calm Calm - N/A   Partly Cloudy
7:30 PM 42.8 °F - 39.2 °F 87% 30.24 in - Calm Calm - N/A   Clear
8:00 PM 41.0 °F - 39.2 °F 93% 30.24 in - Calm Calm - N/A   Clear
8:30 PM 39.2 °F - 37.4 °F 93% 30.24 in - WNW 2.3 mph - N/A   Clear
9:00 PM 39.2 °F - 37.4 °F 93% 30.24 in - Calm Calm - N/A   Clear
9:30 PM 37.4 °F - 37.4 °F 100% 30.24 in - Calm Calm - N/A   Clear
10:00 PM 35.6 °F - 35.6 °F 100% 30.24 in - East 1.2 mph - N/A   Clear
10:30 PM 35.6 °F - 35.6 °F 100% 30.24 in - Calm Calm - N/A   Clear
11:00 PM 35.6 °F - 35.6 °F 100% 30.24 in - Calm Calm - N/A   Clear
11:30 PM 33.8 °F 30.8 °F 33.8 °F 100% 30.24 in - NE 3.5 mph - N/A   Clear